Погода в Ментеше

Турция     37°25′15″N   28°25′58″E
темп.,
°C
ветер,
м/с
пор.,
м/с
влажн.,
%
обл.,
%
осадки,
мм/ч
давл.,
гПа
погр.,
м
12 апреля, пн
пн1200:00+3сз22610 0.0 102312
03:00+2сз11650 0.0 102310
06:00+1сз11690 0.0 102210
09:00+6св1154100 0.0 1022360
12:00+11ссв23433 0.0 10211031
15:00+14с33381 0.0 10191371
18:00+13ссз33422 0.0 10191129
21:00+8зсз22610 0.0 102011
13 апреля, вт
вт1300:00+7з11660 0.0 102010
03:00+6юз11705 0.0 102110
06:00+5ю11740 0.0 102010
09:00+10вюв11550 0.0 1020292
12:00+16всв22380 0.0 10191152
15:00+19сз34329 0.0 10161960
18:00+17з444326 0.0 10161340
21:00+10юз22735 0.0 101825
14 апреля, ср
ср1400:00+9ююз227458 0.0 101919
03:00+8ю2277100 0.0 101827
06:00+7ююв227783 0.0 101828
09:00+12юв345514 0.0 1016397
12:00+19ююз473211 0.0 10151456
15:00+18ю61036100 0.0 10141319
18:00+14ю484569 0.0 10141022
21:00+9ю23765 0.0 101679
15 апреля, чт
чт1500:00+7ю2280100 0.0 101728
03:00+7ю11810 0.0 101614
06:00+6ю11791 0.0 101712
09:00+11вюв22600 0.0 1016449
12:00+17св134336 0.0 10151701
15:00+18з343749 0.0 10142195
18:00+16зюз444842 0.0 10141298
21:00+11з227398 0.0 101520
16 апреля, пт
пт1600:00+10з118098 0.0 101611
03:00+8зюз118998 0.0 101610
06:00+8з1192100 0.0 101610
09:00+12св107699 0.0 1016330
12:00+17св2344100 0.0 10151453
15:00+21с24325 0.0 10142149
18:00+19сз3337100 0.0 10141272
21:00+13з2262100 0.0 101614